Regional Weather Roundup
Issued by NWS

Home | Current Version | Previous Version | Text Only | Print | Product List | Glossary On
Versions: 1 2 3 4 5 6 7 8 9 10 11 12 13 14 15 16 17 18 19 20 21 22 23 24 25 26 27 28 29 30 31 32 33 34 35 36 37 38 39 40 41 42 43 44 45 46 47 48 49 50
000
ASUS45 KREV 071710
RWRNV
NEVADA REGIONAL WEATHER ROUNDUP
NATIONAL WEATHER SERVICE RENO NV
1000 AM PDT TUE JUL 07 2015

NOTE: "FAIR" INDICATES FEW OR NO CLOUDS BELOW 12,000 FEET WITH NO
SIGNIFICANT WEATHER AND/OR OBSTRUCTIONS TO VISIBILITY.

NVZ001-003-004-071800-
WESTERN NEVADA

CITY           SKY/WX    TMP DP  RH WIND       PRES   REMARKS
RENO           PTSUNNY   76  49  38 CALM      30.09F
CARSON CITY    FAIR      72  50  46 CALM      30.12F
MINDEN         CLOUDY    68  54  60 CALM      30.12F
SLIDE MTN        N/A     61  39  44 SE8         N/A
PYRAMID LAKE     N/A     72 N/A N/A E2          N/A
FALLON         PTSUNNY   77  49  37 W3        30.05F
LOVELOCK       PTSUNNY   78  54  43 NE5       30.06F
HAWTHORNE      SUNNY     79  48  34 CALM      30.07F
$$

NVZ002-CAZ072-073-071800-
NORTHERN AND CENTRAL SIERRA

CITY           SKY/WX    TMP DP  RH WIND       PRES   REMARKS
S. LAKE TAHOE  MOSUNNY   72  49  44 NE6       30.20F
TRUCKEE        PTSUNNY   68  48  49 CALM      30.19F
SQUAW VLY 8000 NOT AVBL
SUSANVILLE     SUNNY     75  48  38 CALM      30.08F
BLUE CANYON    MOSUNNY   68  50  52 VRB5      30.19F
MAMMOTH LAKES  FAIR      70  45  40 E5        30.25F
BRIDGEPORT     FAIR      67  44  43 CALM      30.20F
$$

NVZ030-031-036-071800-
NORTHERN NEVADA

CITY           SKY/WX    TMP DP  RH WIND       PRES   REMARKS
ELKO           SUNNY     80  45  28 VRB3      30.11F
WINNEMUCCA     NOT AVBL
WENDOVER       SUNNY     81  48  32 SE7       30.07F
$$

NVZ035-037-071800-
CENTRAL NEVADA

CITY           SKY/WX    TMP DP  RH WIND       PRES   REMARKS
ELY            SUNNY     75  42  30 S6        30.19F
EUREKA           N/A     73  41  31 VRB3      30.18F
$$

NVZ013-014-071800-
SOUTH CENTRAL NEVADA

CITY           SKY/WX    TMP DP  RH WIND       PRES   REMARKS
TONOPAH        PTSUNNY   76  43  30 E5        30.16F
$$

NVZ017-020-022-071800-
SOUTHERN NEVADA

CITY           SKY/WX    TMP DP  RH WIND       PRES   REMARKS
LAS VEGAS      MOSUNNY   88  56  33 SE5       29.93F
N. LAS VEGAS   MOSUNNY   87  57  35 E5        29.96F
NELLIS AFB     MOSUNNY   89  55  31 NE8       29.94F
HENDERSON      SUNNY     88  58  36 N7        30.00F
MERCURY        MOSUNNY   87  47  24 SE10      30.01F
$$


USA.gov is the U.S. government's official web portal to all federal, state and local government web resources and services.